Theta_e
315 316 316 317 318 315 314 313 314 313 314 315 316 318 318 314 315 314 313 320 324 328 329 326 325 322 321 314 314 312 303 299 299 298 303 309 308 312 316 314 317 318 317 319 324
314 315 316 316 317 317 315 315 315 314 314 315 317 318 316 313 309 311 317 323 325 328 326 321 317 319 314 312 312 309 304 300 299 298 301 308 311 312 312 312 313 316 320 322 323
313 314 316 316 315 317 317 315 314 314 314 316 317 317 316 315 308 307 318 324 327 326 328 324 321 318 311 312 309 308 305 304 301 302 304 308 309 311 311 309 313 313 316 319 318
312 314 315 316 316 316 316 314 312 315 316 316 317 317 318 314 297 309 319 322 326 324 324 321 318 312 308 305 308 302 306 302 303 304 306 309 310 306 307 307 313 319 321 318 317
312 313 314 315 316 316 317 316 316 316 316 315 317 317 312 304 303 316 319 320 321 320 319 317 314 311 307 306 306 300 301 303 306 305 308 311 306 306 305 313 318 320 320 317 317
311 312 313 314 315 316 317 317 317 317 316 316 318 316 309 298 315 316 317 318 317 318 320 319 316 315 309 305 307 302 302 303 305 303 304 306 303 306 305 314 316 318 315 316 318
310 311 312 313 313 314 315 316 317 317 317 317 318 315 306 304 315 316 317 317 319 318 318 316 317 312 308 304 305 303 298 301 303 303 300 302 301 299 307 315 313 313 314 316 320
309 310 311 313 313 314 314 315 317 316 316 316 317 312 302 314 316 313 314 317 319 318 315 316 315 308 307 306 304 300 300 294 299 302 302 300 294 301 308 311 309 311 313 314 316
308 309 310 312 313 315 315 316 316 318 317 314 310 307 299 313 307 310 312 313 315 316 316 315 312 304 304 301 297 299 293 296 294 302 301 298 293 300 305 308 307 308 311 313 314
307 308 309 312 313 314 314 314 315 314 311 311 309 301 303 299 305 308 313 314 311 311 310 309 305 301 301 302 293 293 295 296 293 299 302 298 294 298 299 300 299 306 308 309 310
306 307 308 310 313 315 307 303 300 300 303 299 300 299 301 305 309 306 308 311 310 307 300 303 299 296 300 302 301 301 298 296 298 302 300 295 294 296 296 296 296 297 299 300 300
306 306 307 309 312 310 304 298 298 300 296 303 303 303 304 305 300 303 308 304 304 298 302 298 294 297 301 303 302 301 298 294 297 301 300 295 293 297 296 295 295 296 296 298 299
305 306 307 309 311 303 296 297 301 301 296 299 302 300 300 305 299 299 304 303 300 297 297 295 295 299 301 300 300 299 297 294 295 296 297 295 292 293 294 295 295 295 296 298 299
304 305 306 309 304 300 294 299 301 300 289 292 296 299 302 304 298 305 305 302 299 294 294 293 298 299 298 295 298 294 299 298 294 294 288 295 287 290 291 291 293 295 296 297 299
304 304 306 309 298 295 297 301 301 297 273 293 295 306 302 299 299 300 307 303 295 294 296 289 292 295 293 294 299 293 300 297 297 291 290 289 286 288 290 287 291 293 295 296 297
303 304 305 299 298 296 299 299 296 280 274 288 295 295 296 298 298 301 301 304 301 295 294 292 297 295 295 298 298 298 294 292 292 289 283 288 287 285 285 288 291 294 295 297 298
302 303 300 299 294 297 297 292 276 273 287 287 289 294 293 292 294 296 294 293 291 287 286 290 290 294 296 292 295 294 289 281 280 280 281 287 285 286 290 290 294 294 294 296 295
302 302 297 297 296 295 294 282 269 275 282 291 291 292 289 291 293 293 293 290 294 292 288 284 282 290 293 292 290 290 289 283 276 277 278 283 281 285 291 293 296 295 294 293 293
301 292 292 295 296 295 287 270 272 279 287 287 288 285 287 289 291 291 290 290 292 292 287 285 284 291 293 293 292 288 285 290 282 280 279 280 282 288 289 290 293 293 292 291 292
289 288 289 295 295 291 280 277 280 287 288 288 282 285 284 286 288 288 288 290 291 292 293 290 283 289 292 293 293 291 292 283 283 277 276 278 279 283 286 288 291 291 290 290 291
290 283 292 294 295 285 273 271 283 288 290 287 284 283 286 284 287 286 288 290 292 291 291 292 288 285 289 288 287 287 286 287 286 283 279 276 279 288 289 291 291 292 292 291 291
289 281 291 295 281 280 271 276 287 286 290 288 287 286 285 285 284 284 283 286 293 292 287 290 287 282 285 288 288 287 287 287 280 278 280 279 279 287 291 292 293 292 292 291 291
288 288 292 292 274 272 276 278 283 285 286 286 284 286 287 283 279 283 284 288 289 289 287 289 281 277 282 285 285 284 287 288 286 283 280 277 280 288 288 291 292 291 292 290 290
288 283 286 286 282 279 276 277 278 285 286 287 286 286 284 282 284 282 284 287 289 289 294 291 283 282 280 281 283 281 283 286 285 280 280 280 281 285 286 288 288 290 291 289 290
287 285 283 277 279 279 282 278 278 277 283 285 284 284 283 276 278 281 283 284 288 291 287 286 278 280 282 282 282 282 282 284 284 285 280 281 282 285 288 288 289 291 290 288 287
285 284 284 279 282 282 282 278 279 281 283 284 276 284 284 280 281 280 283 283 282 285 284 286 276 280 275 281 280 278 282 282 283 285 284 284 283 287 289 289 288 289 289 288 288
287 286 287 285 282 282 281 281 281 283 283 285 283 281 280 283 284 284 286 286 284 282 280 279 277 272 270 277 275 273 278 281 282 284 286 283 288 287 285 288 289 289 289 289 289
Wind_Speed
20 20 20 19 18 9 6 5 8 5 7 11 16 23 14 4 10 8 3 2 4 12 12 8 4 8 5 2 2 3 2 3 1 4 3 4 4 2 4 6 3 3 5 7 16
19 19 19 19 19 13 8 5 6 9 12 20 23 11 9 7 4 3 6 2 4 11 12 15 13 15 4 2 4 3 2 3 3 1 4 1 5 6 4 3 4 3 5 13 16
19 19 19 18 17 16 12 8 6 11 15 14 9 11 12 7 6 4 10 3 14 8 11 11 14 6 5 3 3 2 5 4 6 5 6 2 4 2 9 2 5 7 9 8 9
18 20 19 20 16 15 9 2 3 8 17 14 6 12 15 1 5 1 8 7 9 4 11 10 11 7 5 8 3 7 5 3 4 8 4 3 5 4 2 0 2 10 12 7 10
18 19 19 19 19 15 11 5 4 7 5 2 8 9 12 6 1 2 9 3 4 4 12 14 15 8 6 7 5 4 4 3 6 9 8 3 2 5 3 4 9 11 7 8 7
18 17 19 18 18 20 15 13 11 6 5 6 8 2 7 5 6 7 7 2 4 4 14 16 14 9 7 6 5 5 8 3 5 9 6 1 1 1 2 5 9 9 7 6 8
19 19 17 17 17 17 15 18 10 6 4 7 9 2 9 6 9 8 8 3 2 2 18 2 7 6 7 7 3 3 7 6 6 7 5 4 2 2 4 6 8 8 7 6 9
18 19 19 16 16 15 17 14 8 1 3 3 7 5 4 3 8 8 9 3 6 11 11 10 11 11 4 9 6 5 4 5 2 4 5 2 3 1 3 8 7 7 7 7 7
18 20 21 19 16 15 15 13 10 3 2 2 2 1 4 6 3 7 6 1 8 6 7 7 3 6 3 11 4 3 5 7 4 5 6 4 1 1 2 5 7 7 7 7 7
18 19 22 22 19 17 18 6 8 6 5 2 3 1 2 3 5 6 4 6 8 6 6 3 4 5 3 11 12 6 7 6 8 10 6 1 3 3 1 3 2 6 6 4 2
16 18 20 22 22 20 8 4 6 6 10 4 4 1 2 4 2 7 6 4 4 3 2 3 5 7 13 4 3 14 12 11 3 4 3 1 3 4 2 6 5 5 7 8 5
17 17 19 21 18 17 6 6 3 1 3 3 3 1 2 2 4 8 9 5 3 3 2 5 4 2 3 6 4 8 11 5 4 2 2 3 4 2 2 3 3 6 5 5 4
17 17 19 20 16 5 5 2 2 3 2 3 1 3 4 3 4 6 6 3 4 3 4 7 2 2 4 5 4 2 11 8 8 4 6 6 2 4 2 3 5 4 2 2 6
16 18 19 22 5 1 3 1 4 2 3 9 5 2 0 1 5 1 1 1 4 4 7 6 6 1 9 6 0 5 4 12 17 12 5 1 5 6 4 3 2 3 3 4 5
14 16 19 5 2 4 4 2 2 1 5 7 7 3 3 4 2 9 4 5 3 7 1 1 5 5 8 2 1 1 6 9 9 6 5 4 3 2 6 5 4 4 5 5 5
12 14 17 5 3 1 5 3 2 7 1 5 4 5 2 6 3 2 2 4 1 11 12 5 1 4 2 11 8 11 17 13 7 4 1 4 2 5 8 8 5 5 6 6 5
10 12 8 2 1 3 2 3 8 7 3 0 3 3 5 6 4 2 2 3 2 6 2 4 6 5 3 10 8 5 4 3 3 0 3 4 3 8 14 8 13 14 9 7 6
9 12 4 1 3 2 3 7 9 4 4 2 4 4 4 4 4 4 2 4 4 2 4 3 2 3 4 2 6 4 2 4 6 5 3 3 7 6 6 12 12 9 9 7 7
7 2 2 2 2 2 6 6 9 7 4 5 3 4 2 3 3 3 3 2 1 3 5 5 3 3 1 3 2 5 4 1 3 2 3 5 5 3 5 8 13 13 8 8 8
2 2 2 4 2 4 7 5 3 4 1 2 3 2 3 1 1 2 1 1 3 2 3 3 6 1 2 3 3 3 3 3 1 4 4 4 4 6 12 17 17 16 12 8 7
3 3 2 4 2 6 4 7 4 3 0 4 3 4 4 5 4 3 3 2 1 4 1 3 1 2 2 3 5 2 1 1 0 4 5 4 8 5 22 21 22 18 13 11 10
3 1 3 1 6 2 3 5 3 2 2 0 1 2 6 6 4 4 6 2 8 8 6 6 4 3 3 1 2 3 5 7 4 5 2 1 7 1 10 18 18 16 12 9 9
4 2 2 3 4 2 3 3 2 1 3 2 3 2 1 5 2 3 3 2 1 5 6 5 0 3 2 2 2 4 4 4 0 2 5 5 5 5 4 12 14 16 14 10 10
4 1 3 4 2 7 5 3 2 2 3 2 2 0 2 2 3 5 3 1 1 2 1 2 3 5 5 3 1 5 6 7 5 3 3 6 5 1 2 10 9 12 13 12 11
2 3 3 4 4 4 4 6 4 4 1 4 2 4 5 3 3 4 3 2 1 0 1 3 5 2 2 1 0 2 5 7 10 11 7 3 9 5 9 12 17 15 12 11 9
5 5 3 2 4 7 4 7 9 4 8 4 4 6 5 6 7 9 7 4 5 2 5 1 1 2 3 2 1 4 7 7 6 7 9 8 14 6 6 6 8 12 14 13 11
2 2 2 5 5 6 6 6 10 7 3 5 6 3 3 7 3 2 1 3 5 8 5 4 6 3 5 3 5 7 11 15 9 8 12 17 19 7 5 9 13 12 15 17 16
Wind_Direction
352 351 352 357 5 24 354 338 335 315 317 297 291 291 234 227 316 287 223 135 134 165 134 137 160 133 54 49 37 70 95 261 69 25 288 180 123 41 37 98 69 16 151 151 132
352 351 350 354 358 7 350 332 19 356 345 308 295 246 155 158 259 285 315 158 192 172 141 154 147 129 98 95 44 138 202 278 146 334 316 120 111 136 105 117 44 40 20 121 137
350 352 354 352 350 355 17 85 44 329 293 271 264 163 157 100 252 206 324 348 183 183 156 164 143 109 103 167 168 161 134 284 324 3 306 202 106 106 125 236 187 174 155 125 132
354 352 351 354 350 344 3 73 285 282 272 297 46 134 88 189 227 306 317 318 147 147 160 147 136 125 126 159 138 127 74 48 13 316 291 136 113 56 36 15 278 161 149 125 138
357 353 354 359 352 337 326 334 286 311 2 206 66 85 104 243 115 352 340 341 131 169 183 158 162 178 154 135 111 88 103 38 321 309 343 71 79 159 70 22 91 111 116 128 131
353 357 353 348 345 343 334 337 347 29 41 8 23 164 103 304 345 344 327 228 175 148 194 165 165 172 124 136 132 119 90 55 346 325 340 265 169 188 131 111 96 114 140 157 166
351 349 348 346 343 332 324 322 349 77 39 349 12 30 75 351 340 335 266 213 251 160 170 107 138 109 118 107 127 126 93 49 357 327 301 321 271 40 133 124 125 141 159 179 193
349 347 342 344 341 337 328 318 324 98 91 21 8 19 94 329 327 321 329 351 70 66 94 99 98 91 73 121 79 118 74 128 211 354 290 328 247 108 144 142 147 159 174 183 198
348 347 342 338 346 342 335 317 305 282 320 37 92 64 49 331 353 308 288 183 71 74 86 98 84 94 87 130 103 199 147 175 159 179 291 254 255 158 153 151 172 182 181 191 201
350 350 341 339 344 346 334 297 302 49 356 152 86 107 69 323 301 304 321 29 71 71 63 114 82 97 152 179 186 153 123 150 153 175 205 36 47 340 276 136 163 206 210 205 120
349 350 342 341 347 341 2 80 13 12 30 31 330 347 329 295 294 357 0 18 27 33 133 43 105 161 169 113 110 147 135 130 126 159 139 86 78 343 43 90 85 64 101 113 96
345 348 343 338 344 358 11 62 86 42 91 36 333 15 253 297 36 15 1 39 37 80 264 72 104 91 92 96 100 141 139 111 75 346 107 135 87 12 10 74 120 122 111 126 113
341 346 340 335 331 61 75 13 322 333 85 53 37 331 326 5 56 9 12 25 50 42 60 96 107 131 153 119 136 159 173 168 137 133 34 111 334 253 2 72 80 59 108 120 148
340 342 343 331 56 283 65 220 237 256 74 357 5 18 342 278 67 83 46 328 45 94 44 55 342 171 115 84 225 151 294 159 146 158 173 235 216 230 190 196 133 136 154 150 127
337 341 343 21 269 39 306 313 265 224 66 342 313 319 338 65 142 27 6 25 43 53 95 20 6 64 81 60 120 104 134 132 135 111 125 201 204 234 159 211 194 194 184 163 145
331 338 342 17 45 316 318 2 9 48 37 339 282 7 19 19 56 92 70 43 234 63 56 66 41 41 62 65 84 121 91 55 62 49 246 174 187 229 195 183 174 201 194 181 164
323 328 339 323 295 325 5 31 35 88 320 28 63 36 29 24 57 96 79 68 117 117 73 45 28 335 47 78 26 92 80 69 41 15 234 160 165 255 207 180 170 179 190 186 164
321 319 321 155 322 10 56 43 68 244 224 229 158 73 68 351 29 15 66 87 30 86 122 132 152 335 325 120 160 144 45 141 151 187 183 157 222 246 220 163 171 171 175 170 169
331 340 359 269 334 54 67 47 199 207 179 161 40 76 1 349 110 46 53 85 105 9 123 145 101 309 305 345 151 177 183 306 102 40 115 200 276 298 130 151 171 180 173 186 182
83 25 283 309 348 72 73 225 195 226 192 129 172 172 176 225 112 58 55 172 139 80 12 144 119 254 281 220 89 60 106 147 267 148 217 234 251 234 184 182 182 190 187 184 179
73 37 257 331 64 51 160 220 229 233 6 161 203 162 182 179 187 170 191 350 273 137 6 151 43 96 49 211 180 110 159 193 130 197 184 190 250 225 190 184 189 191 181 181 179
118 38 292 80 58 93 156 192 300 216 60 155 232 201 166 158 160 174 187 225 182 153 166 212 120 131 190 253 202 252 204 187 179 202 233 217 273 99 203 193 185 182 177 187 184
151 174 328 88 145 246 287 296 283 227 178 180 228 247 307 159 104 151 149 326 159 167 171 169 34 85 29 293 78 236 211 221 161 79 211 155 257 351 116 170 186 174 182 182 188
101 134 346 50 117 135 154 252 243 269 288 200 208 111 133 127 43 158 138 206 36 120 119 135 141 181 186 150 93 194 209 201 186 170 190 232 295 335 176 172 175 185 177 182 188
324 259 214 186 237 163 154 149 158 207 299 1 359 214 171 113 31 169 145 127 23 228 110 146 178 136 135 100 208 251 243 203 205 219 200 261 220 210 204 194 193 183 171 180 188
161 137 311 155 110 110 190 215 184 183 150 214 171 216 189 167 188 197 142 190 193 140 155 37 191 113 314 338 321 264 238 236 246 248 257 267 265 220 228 129 159 179 177 188 195
173 76 202 167 125 123 218 197 200 156 236 159 189 111 171 223 181 317 117 119 148 148 147 124 131 91 265 350 337 307 223 205 209 211 209 224 239 169 196 188 189 183 185 193 202